Current Version              Previous Version:    01  02  03  04  05  06  07  08  09  10  11  12  13  14  15  16  17  18  19  20  21  22  23  24  25  26  27  28  29  30  
   31  32  33  34  35  36  37  38  39  40  41  42  43  44  45  46  47  48  49  50  51  52  53  54  55  56  57  58  59  60  

[Printable]
590
ASUS44 KFWD 252310
RWRTX
NORTH TEXAS HOURLY WEATHER ROUNDUP
NATIONAL WEATHER SERVICE FORT WORTH TX
500 PM CST TUE NOV 25 2014

NOTE: "FAIR" INDICATES FEW OR NO CLOUDS BELOW 12,000 FEET WITH NO
SIGNIFICANT WEATHER AND/OR OBSTRUCTIONS TO VISIBILITY.

TXZ118-119-260000-
DALLAS/FORT WORTH METROPLEX

CITY           SKY/WX    TMP DP  RH WIND       PRES   REMARKS
DFW AIRPORT    PTCLDY    59  27  29 W10       30.16S
DALLAS LOVE    CLEAR     61  28  28 W9        30.16S
FTW MEACHAM    CLEAR     59  29  31 SW9       30.16S
DAL-EXECUTIVE  CLEAR     61  22  22 W10       30.16R
FTW-ALLIANCE   PTCLDY    58  26  29 W9        30.16S
FTW-SPINKS     CLEAR     61  25  25 W7        30.18F
ARLINGTON      CLEAR     61  23  23 W7        30.17S
GRAND PRAIRIE  CLEAR     61  30  31 W12       30.18S
ADDISON        CLEAR     61  25  25 W5        30.16
MESQUITE       CLEAR     61  25  25 W12       30.17F
LANCASTER      CLEAR     60  19  20 W9        30.18S
$$

TXZ091>094-102>105-117-120-121-131>134-260000-
NORTH CENTRAL TEXAS

CITY           SKY/WX    TMP DP  RH WIND       PRES   REMARKS
SHRMAN/DENISON CLEAR     57  32  39 W3        30.16S
GAINESVILLE    CLEAR     55  25  31 W5        30.18S
BOWIE          CLEAR     54  26  33 W3        30.16S
BRIDGEPORT     CLEAR     58  32  36 W7        30.18S
DECATUR        CLEAR     56  26  31 W6        30.16S
DENTON         CLEAR     57  27  31 W8        30.16S
MCKINNEY       CLEAR     58  28  32 W9        30.16S
GREENVILLE     CLEAR     59  27  29 W7        30.16S
ROCKWALL       CLEAR     59  28  30 NW5       30.15S
TERRELL        CLEAR     61  26  26 W10       30.16S
WAXAHACHIE     CLEAR     60  28  30 W7        30.18S
CLEBURNE       CLEAR     59  25  27 W7        30.18F
GRANBURY       CLEAR     60  27  27 W7        30.19S
$$

TXZ083>090-098>101-113>116-127>130-139>142-154-155-260000-
WESTERN NORTH TEXAS

CITY           SKY/WX    TMP DP  RH WIND       PRES   REMARKS
WICHITA FALLS  CLEAR     54  25  32 SW8       30.14F
WF-KICKAPOO    CLEAR     56  23  27 SW8       30.16S
VERNON         CLEAR     55  27  33 S8        30.11F
ABILENE        CLEAR     57  16  20 W15       30.16F
ABILENE-DYESS  CLEAR     58  19  22 SW15      30.15F
BRECKENRIDGE   CLEAR     59  22  23 W10       30.15F HAZE
GRAHAM         CLEAR     57  31  37 SW6       30.14F
MINERAL WELLS    N/A     58  28  32 W6        30.15F
STEPHENVILLE   CLEAR     59  24  25 W7        30.20F
COMANCHE       CLEAR     59  30  33 W7        30.19S
BROWNWOOD      CLEAR     57  23  26 W12G17    30.19F
COLEMAN        CLEAR     57  32  38 W10       30.19F
BRADY          CLEAR     57  25  28 W10       30.19F
$$

TXZ143>147-156>162-174-175-260000-
CENTRAL TEXAS

CITY           SKY/WX    TMP DP  RH WIND       PRES   REMARKS
WACO           CLEAR     60  27  28 SW8       30.18F
WACO-TSTC      CLEAR     61  25  25 SW6       30.18F
WACO-MCGREGOR  CLEAR     63  27  25 W8        30.20S
HILLSBORO      CLEAR     61  26  26 W10       30.17F
CORSICANA      CLEAR     62  24  23 W9        30.18S HAZE
MEXIA          CLEAR     61  26  26 W9        30.18S
HEARNE         CLEAR     62  30  30 W5        30.21S
CAMERON        CLEAR     63  26  24 W6        30.20S
TEMPLE         CLEAR     63  27  25 W6        30.18F
KILLEEN        CLEAR     61  25  25 W6        30.19F
KILLEEN-SKYLRK CLEAR     63  27  25 W6        30.18R
FORT HOOD      CLEAR     64  25  22 W5        30.18F
GATESVILLE     CLEAR     61  30  31 W3        30.21S
HAMILTON       CLEAR     60  26  27 W15       30.19S
LAMPASAS       CLEAR     60  28  29 NW5       30.19R
$$

TXZ095>097-106>112-122>126-135>138-148>153-164>167-260000-
EAST TEXAS

CITY           SKY/WX    TMP DP  RH WIND       PRES   REMARKS
PARIS          CLEAR     57  25  28 NW5       30.15S
SULPHUR SPRNGS CLEAR     59  26  27 W10       30.17S
MOUNT PLEASANT CLEAR     60  28  29 W6        30.16S
MINEOLA        CLEAR     63  19  19 W7        30.16S
TYLER          CLEAR     61  27  27 W8        30.16S
LONGVIEW       PTCLDY    60  29  30 SW7       30.15F
MARSHALL       CLEAR     58  33  38 CALM      30.18S
ATHENS         CLEAR     59  28  31 W3        30.16R
PALESTINE      CLEAR     61  27  27 W7        30.19S
JACKSONVILLE   CLEAR     61  27  27 W3        30.19S
HENDERSON      CLEAR     58  31  35 CALM      30.17F
NACOGDOCHES    CLEAR     57  30  35 SW3       30.20S
LUFKIN         CLEAR     63  32  31 CALM      30.20S
$$

SUPPLEMENTAL OBSERVATIONS (CENTRAL)

CITY           SKY/WX    TMP DP  RH WIND       PRES   REMARKS
PAT MAYSE LAKE   N/A     55  25  30 W5          N/A
GREENVILLE       N/A     57  25  28 W7G17       N/A
CEDAR HILL       N/A     59  28  31 W2G10       N/A
PALESTINE        N/A     61  25  25 W2G10       N/A
MCGREGOR         N/A     63  27  25 W7          N/A
TEMPLE           N/A     61  25  25 SW2G12      N/A
$$

SUPPLEMENTAL OBSERVATIONS (WEST)

CITY           SKY/WX    TMP DP  RH WIND       PRES   REMARKS
POSSUM KINGDOM   N/A     57  28  33 SW5G13      N/A
GRANBURY         N/A     61  25  25 W7          N/A
HAMBY            N/A     57  18  21 W15         N/A
IVIE RESERVOIR   N/A     59  27  29 W8G17       N/A
COLORADO BEND    N/A     61  25  25 NW5         N/A
$$

SUPPLEMENTAL OBSERVATIONS (EAST)

CITY           SKY/WX    TMP DP  RH WIND       PRES   REMARKS
CLARKSVILLE      N/A     55  25  30 NW3         N/A
TEXARKANA        N/A     52  32  46 CALM        N/A
LINDEN           N/A     55  34  44 CALM        N/A
GILMER           N/A     61  27  27 W6G15       N/A
HENDERSON        N/A     61  30  31 SW2         N/A
N SABINE NF      N/A     52  36  54 MISG        N/A
S SABINE NF      N/A     48  39  71 CALM        N/A
$$

SUPPLEMENTAL OBSERVATIONS ARE A COLLECTION OF AUTOMATED INSTRUMENTS
THAT ARE MAINTAINED BY A VARIETY OF FEDERAL AND STATE AGENCIES.
CERTAIN ELEMENTS...SUCH AS HUMIDITY VALUES AND SUSTAINED WIND
SPEEDS...MAY BE APPROXIMATED.